Location: Unspecified
(42.9300°N, 71.1866°W)
Time: 13:44:02
(UTC-05:00)

HST - Visible Passes

Search period start: 23 November 2014 00:00
Search period end: 03 December 2014 00:00
Orbit: 545 x 550 km, 28.5° (Epoch: 21 November)

Date Brightness Start Highest point End Pass type
(mag) Time Alt. Az. Time Alt. Az. Time Alt. Az.
23 Nov 3.5 06:11:38 10° SSW 06:12:46 11° S 06:13:55 10° SSE visible
24 Nov 3.5 06:04:03 10° SSW 06:05:06 11° S 06:06:09 10° SSE visible
25 Nov 3.5 05:56:44 10° SSW 05:57:25 10° S 05:58:05 10° S visible
